Home > Weather > Palestine > Past weeks

Flag for USA Past Weather in Palestine, Texas, USA — Yesterday and Last 2 Weeks

Now
78 °F

Clear.


Feels Like: 81 °F
Forecast: 75 / 93 °F
Wind: No wind

Location: Palestine Municipal Airport

Current Time: Jun 26, 2016 at 3:22:07 AM

Latest Report: Jun 26, 2016 at 2:55 AM


Visibility: 10 mi

Pressure: 30.11 "Hg

Humidity: 96%

Dew Point: 77 °F

Location of PalestineLocation

Past Weather in Palestine — Graph

°F

Palestine Temperature Yesterday

Maximum temperature yesterday: 93 °F (at 2:55 PM)
Minimum temperature yesterday: 75 °F (at 6:35 AM)
Average temperature yesterday: 83 °F

High & Low Weather Summary for the Past Weeks

 TemperatureHumidityPressure
High94 °F (Jun 16, 4:15 PM)100% (Jun 11, 6:55 AM)30.25 "Hg (Jun 11, 6:55 AM)
Low70 °F (Jun 19, 4:55 AM)46% (Jun 24, 4:15 PM)29.83 "Hg (Jun 13, 7:15 PM)
Average82 °F78%30.03 "Hg
* Reported Jun 11 2:15 AM — Jun 26 2:15 AM, Palestine, Weather by CustomWeather, © 2016

Note: Actual official high and low records may vary slightly from our data, if they occured in-between our weather recording intervals... More about our weather records

Advertising

Palestine Weather History for the Previous 24 Hours

Scroll right to see more
 ConditionsComfort  
Time TempWeatherWind HumidityBarometerVisibility
2:15 AM
Sun, Jun 26
78 °FClear.No wind96%30.09 "Hg10 mi
1:55 AM78 °FClear.No wind96%30.09 "Hg10 mi
1:35 AM78 °FClear.No wind96%30.08 "Hg7 mi
1:15 AM79 °FClear.No wind95%30.08 "Hg7 mi
12:55 AM79 °FPassing clouds.No wind95%30.07 "Hg10 mi
12:35 AM79 °FPassing clouds.No wind95%30.07 "Hg10 mi
12:15 AM79 °FClear.3 mph95%30.06 "Hg10 mi
11:55 PM
Sat, Jun 25
79 °FPassing clouds.No wind95%30.06 "Hg10 mi
11:35 PM79 °FPassing clouds.No wind95%30.05 "Hg10 mi
11:15 PM79 °FClear.No wind95%30.05 "Hg10 mi
10:55 PM79 °FClear.3 mph94%30.05 "Hg10 mi
10:35 PM79 °FClear.No wind94%30.05 "Hg10 mi
10:15 PM79 °FClear.3 mph95%30.04 "Hg10 mi
9:55 PM79 °FClear.No wind96%30.04 "Hg10 mi
9:35 PM79 °FClear.No wind94%30.03 "Hg10 mi
9:15 PM79 °FSunny.No wind96%30.03 "Hg10 mi
8:55 PM80 °FSunny.No wind94%30.02 "Hg10 mi
8:35 PM80 °FSunny.No wind94%30.02 "Hg10 mi
8:15 PM80 °FSunny.3 mph94%30.03 "Hg10 mi
7:55 PM80 °FScattered clouds.No wind93%30.03 "Hg10 mi
7:35 PM81 °FCloudy.No wind90%30.04 "Hg10 mi
7:15 PM80 °FDrizzle. Broken clouds.No wind92%30.04 "Hg10 mi
6:55 PM80 °FLight rain. Cloudy.5 mph91%30.03 "Hg5 mi
6:35 PM85 °FHeavy rain. Broken clouds.13 mph73%30.04 "Hg7 mi
6:15 PM90 °FScattered clouds.3 mph60%30.01 "Hg10 mi
5:55 PM90 °FSunny.3 mph60%30.01 "Hg10 mi
5:35 PM91 °FSunny.5 mph56%30.02 "Hg10 mi
5:15 PM91 °FSunny.3 mph59%30.03 "Hg10 mi
4:55 PM91 °FScattered clouds.5 mph60%30.03 "Hg10 mi
4:35 PM91 °FScattered clouds.5 mph57%30.03 "Hg10 mi
4:15 PM92 °FScattered clouds.7 mph57%30.03 "Hg10 mi
3:55 PM93 °FBroken clouds.8 mph55%30.03 "Hg10 mi
3:35 PM90 °FBroken clouds.5 mph60%30.04 "Hg10 mi
3:15 PM92 °FPartly sunny.7 mph56%30.05 "Hg10 mi
2:55 PM93 °FScattered clouds.8 mph54%30.05 "Hg10 mi
2:35 PM92 °FScattered clouds.9 mph55%30.05 "Hg10 mi
2:15 PM91 °FBroken clouds.6 mph58%30.06 "Hg10 mi
1:55 PM91 °FBroken clouds.8 mph56%30.07 "Hg10 mi
1:35 PM90 °FScattered clouds.7 mph60%30.07 "Hg10 mi
1:15 PM90 °FScattered clouds.5 mph60%30.08 "Hg10 mi
12:55 PM88 °FBroken clouds.6 mph64%30.08 "Hg10 mi
12:35 PM89 °FScattered clouds.7 mph62%30.08 "Hg10 mi
12:15 PM89 °FScattered clouds.7 mph61%30.09 "Hg10 mi
11:55 AM87 °FBroken clouds.6 mph67%30.09 "Hg10 mi
11:35 AM88 °FPartly sunny.5 mph65%30.09 "Hg10 mi
11:15 AM88 °FPartly sunny.6 mph67%30.09 "Hg10 mi
10:55 AM87 °FBroken clouds.6 mph70%30.10 "Hg10 mi
10:35 AM86 °FScattered clouds.9 mph71%30.10 "Hg10 mi
10:15 AM85 °FPartly sunny.9 mph73%30.10 "Hg10 mi
9:55 AM85 °FScattered clouds.9 mph75%30.10 "Hg10 mi
9:35 AM83 °FScattered clouds.8 mph78%30.10 "Hg10 mi
9:15 AM83 °FScattered clouds.8 mph79%30.10 "Hg10 mi
8:55 AM82 °FScattered clouds.7 mph84%30.10 "Hg10 mi
8:35 AM81 °FSunny.7 mph85%30.10 "Hg10 mi
8:15 AM80 °FSunny.6 mph87%30.09 "Hg10 mi
7:55 AM79 °FSunny.5 mph90%30.09 "Hg10 mi
7:35 AM78 °FSunny.5 mph93%30.09 "Hg10 mi
7:15 AM76 °FClear.3 mph96%30.08 "Hg7 mi
6:55 AM76 °FClear.No wind96%30.08 "Hg7 mi
6:35 AM75 °FClear.No wind96%30.08 "Hg7 mi
6:15 AM76 °FClear.No wind96%30.08 "Hg7 mi
5:55 AM76 °FClear.No wind95%30.07 "Hg10 mi
5:35 AM76 °FClear.No wind94%30.07 "Hg10 mi
5:15 AM76 °FClear.3 mph94%30.06 "Hg10 mi
4:55 AM76 °FClear.5 mph93%30.06 "Hg10 mi
4:35 AM77 °FClear.5 mph93%30.05 "Hg10 mi
4:15 AM77 °FClear.5 mph91%30.05 "Hg10 mi
3:55 AM77 °FClear.6 mph90%30.05 "Hg10 mi
3:35 AM78 °FClear.6 mph91%30.04 "Hg10 mi
3:15 AM78 °FClear.5 mph89%30.04 "Hg10 mi
Weather by CustomWeather, © 2016

See weather overviewHow to use our weather pages